San Bernardino, CA

2:10 AM PST on December 14, 2019 (GMT -0800)
San Bernardino International

Weather History for KSBD - May, 2019

Change the Weather History Date:

Thursday, May 16, 2019

  Actual Average Record
Temperature  
Mean Temperature 62 °F -  
Max Temperature 68 °F 81 °F 98 °F (2014)
Min Temperature 57 °F 53 °F 46 °F (2011)
Degree Days  
Heating Degree Days 2    
Growing Degree Days 12 (Base 50)    
Moisture  
Dew Point 48 °F    
Average Humidity 66    
Maximum Humidity 88    
Minimum Humidity 35    
Precipitation  
Precipitation 0.00 in - - ()
Sea Level Pressure  
Sea Level Pressure 29.93 in    
Wind  
Wind Speed 6 mph (SW)    
Max Wind Speed 17 mph    
Max Gust Speed 29 mph    
Visibility 8 miles    
Events Rain    
Averages and records for this station are not official NWS values.
T = Trace of Precipitation, MM = Missing Value Source: NWS Daily Summary

Daily Weather History Graph

Daily Weather History Graph

Search for Another Location

Airport or City:

Astronomy

May. 16, 2019 Rise Set
Actual Time 5:46 AM PDT 7:44 PM PDT
Civil Twilight 5:18 AM PDT 8:12 PM PDT
Nautical Twilight 4:45 AM PDT 8:45 PM PDT
Astronomical Twilight 4:09 AM PDT 9:22 PM PDT
Moon 5:37 PM PDT (5/16) 4:36 AM PDT (5/16)
Length of Visible Light 14h 53m
Length of Day
13h 57m
Waxing Gibbous, 95% of the Moon is Illuminated
May 16
Waxing Gibbous
May 18
Full
May 26
Last Quarter
Jun 3
New
Jun 9
First Quarter

Hourly Weather History & Observations

Time (PDT) Temp. Dew Point Humidity Pressure Visibility Wind Dir Wind Speed Gust Speed Precip Events Conditions
12:00 AM 61.0 °F 50.0 °F 67% 29.96 in 10.0 mi WSW 4.6 mph - N/A   Overcast
12:20 AM 60.8 °F 49.6 °F 67% 29.96 in 10.0 mi WSW 5.8 mph - N/A   Overcast
12:41 AM 60.8 °F 49.5 °F 66% 29.95 in 10.0 mi SW 3.5 mph - N/A   Overcast
1:00 AM 60.4 °F 49.1 °F 66% 29.95 in 10.0 mi WSW 5.8 mph - N/A   Overcast
1:20 AM 60.4 °F 49.1 °F 66% 29.95 in 10.0 mi SW 5.8 mph - N/A   Overcast
1:41 AM 60.3 °F 49.1 °F 67% 29.94 in 10.0 mi WSW 4.6 mph - N/A   Overcast
2:00 AM 60.1 °F 49.1 °F 67% 29.94 in 10.0 mi WSW 4.6 mph - N/A   Overcast
2:20 AM 60.1 °F 49.3 °F 67% 29.94 in 10.0 mi SW 4.6 mph - N/A   Overcast
2:41 AM 59.9 °F 49.5 °F 68% 29.93 in 10.0 mi Calm Calm - N/A   Overcast
3:00 AM 59.7 °F 49.5 °F 69% 29.92 in 10.0 mi Calm Calm - N/A   Overcast
3:20 AM 59.4 °F 49.3 °F 69% 29.92 in 10.0 mi Calm Calm - N/A   Overcast
3:41 AM 59.4 °F 49.5 °F 70% 29.91 in 10.0 mi West 3.5 mph - N/A   Overcast
4:00 AM 59.4 °F 49.6 °F 70% 29.90 in 10.0 mi WSW 4.6 mph - N/A   Overcast
4:20 AM 59.4 °F 50.0 °F 71% 29.89 in 10.0 mi SW 4.6 mph - N/A   Overcast
4:41 AM 59.4 °F 49.3 °F 69% 29.89 in 10.0 mi Calm Calm - N/A   Overcast
5:00 AM 59.2 °F 47.1 °F 64% 29.89 in 10.0 mi SE 4.6 mph - N/A   Overcast
5:20 AM 59.5 °F 46.4 °F 62% 29.89 in 10.0 mi SE 3.5 mph - N/A   Overcast
5:41 AM 59.4 °F 46.6 °F 63% 29.88 in 10.0 mi SE 3.5 mph - N/A   Overcast
7:00 AM 59.0 °F 48.2 °F 67% 29.88 in 5.0 mi East 6.9 mph - N/A   Overcast
7:45 AM 57.2 °F 51.8 °F 82% 29.88 in 2.0 mi SSE 3.5 mph - N/A Rain Rain
8:00 AM 57.2 °F 51.8 °F 82% 29.88 in 1.0 mi SSE 3.5 mph - N/A Rain Rain
8:45 AM 57.2 °F 53.6 °F 88% 29.89 in 1.0 mi East 6.9 mph - N/A Rain Heavy Rain
9:46 AM 57.2 °F 53.6 °F 88% 29.90 in 2.0 mi East 6.9 mph - N/A   Drizzle
10:47 AM 59.0 °F 53.6 °F 82% 29.90 in 2.0 mi East 8.1 mph - N/A Rain Rain
11:59 AM 62.6 °F 53.6 °F 72% 29.91 in 3.0 mi SE 10.4 mph - N/A   Haze
12:48 PM 62.6 °F 57.2 °F 82% 29.91 in 7.0 mi WSW 3.5 mph - N/A   Mostly Cloudy
1:50 PM 66.2 °F 55.4 °F 68% 29.89 in 7.0 mi WSW 17.3 mph 28.8 mph N/A   Mostly Cloudy
2:50 PM 68.0 °F 41.0 °F 37% 29.90 in 7.0 mi WSW 17.3 mph 27.6 mph N/A   Mostly Cloudy
3:50 PM 68.0 °F 39.2 °F 35% 29.91 in 7.0 mi WSW 12.7 mph 21.9 mph N/A   Mostly Cloudy
4:50 PM 66.2 °F 39.2 °F 37% 29.91 in 7.0 mi WSW 13.8 mph 26.5 mph N/A   Mostly Cloudy
5:50 PM 64.4 °F 39.2 °F 40% 29.92 in 7.0 mi SW 13.8 mph - N/A   Mostly Cloudy
6:50 PM 62.6 °F 44.6 °F 52% 29.92 in 7.0 mi WSW 17.3 mph 20.7 mph N/A   Mostly Cloudy
7:50 PM 59.0 °F 44.6 °F 59% 29.95 in 7.0 mi WSW 13.8 mph - N/A   Mostly Cloudy
8:50 PM 59.0 °F 44.6 °F 59% 29.96 in 7.0 mi SW 9.2 mph - N/A   Mostly Cloudy
10:00 PM 57.9 °F 44.6 °F 61% 29.99 in 10.0 mi WSW 9.2 mph - N/A   Overcast
10:20 PM 57.6 °F 45.0 °F 63% 29.99 in 10.0 mi WSW 9.2 mph - N/A   Overcast
10:40 PM 57.4 °F 45.1 °F 64% 30.00 in 10.0 mi WSW 5.8 mph - N/A   Overcast
11:00 PM 57.4 °F 45.5 °F 65% 29.99 in 10.0 mi West 6.9 mph - N/A   Overcast
11:20 PM 57.4 °F 45.5 °F 65% 29.99 in 10.0 mi WNW 4.6 mph - N/A   Overcast
11:40 PM 57.2 °F 45.7 °F 65% 29.98 in 10.0 mi West 4.6 mph - N/A   Overcast